When you browse on this site, cookies collect data to enhance your experience and personalize the content and advertising you see.
Visit our Privacy Policy to learn more. By continuing to use the site, you agree to this use of cookies and data.
  • In Spain
  • List of Countries
  • For 7 days
  • Water Temperature
  • Weather Map
  • Weather Widgets
  • user-avatar
    Login

    Hourly Weather Northampton

    Today, 15 September, Sunday

    Time Temperature Precipitation Wind Pressure Humidity
    00:00 +12°C° 0 mm 3 mps 761 mmHg 73%
    01:00 +12°C° 0 mm 3 mps 760 mmHg 76%
    02:00 +11°C° 0 mm 3 mps 760 mmHg 78%
    03:00 +11°C° 0 mm 4 mps 759 mmHg 80%
    04:00 +11°C° 0 mm 3 mps 759 mmHg 81%
    05:00 +11°C° 0 mm 3 mps 759 mmHg 82%
    06:00 +11°C° 0 mm 3 mps 759 mmHg 81%
    07:00 +13°C° 0 mm 3 mps 759 mmHg 79%
    08:00 +14°C° 0 mm 3 mps 759 mmHg 77%
    09:00 +17°C° 0 mm 4 mps 759 mmHg 74%
    10:00 +18°C° 0 mm 4 mps 759 mmHg 72%
    11:00 +20°C° 0 mm 4 mps 759 mmHg 69%
    12:00 +21°C° 0 mm 3 mps 759 mmHg 66%
    13:00 +21°C° 0 mm 3 mps 759 mmHg 67%
    14:00 +22°C° 0 mm 3 mps 759 mmHg 68%
    15:00 +22°C° 0 mm 3 mps 758 mmHg 69%
    16:00 +21°C° 0 mm 3 mps 758 mmHg 74%
    17:00 +20°C° 0 mm 3 mps 758 mmHg 79%
    18:00 +19°C° 0 mm 2 mps 758 mmHg 83%
    19:00 +18°C° 0 mm 2 mps 758 mmHg 86%
    20:00 +17°C° 0 mm 2 mps 758 mmHg 89%
    21:00 +16°C° 0 mm 2 mps 758 mmHg 91%
    22:00 +16°C° 0 mm 2 mps 758 mmHg 91%
    23:00 +16°C° 0 mm 2 mps 758 mmHg 91%

    Tomorrow, 16 September, Monday

    Time Temperature Precipitation Wind Pressure Humidity
    00:00 +16°C° 0 mm 2 mps 757 mmHg 90%
    01:00 +16°C° 0 mm 2 mps 757 mmHg 91%
    02:00 +16°C° 0 mm 3 mps 757 mmHg 91%
    03:00 +16°C° 0 mm 3 mps 756 mmHg 92%
    04:00 +16°C° 0 mm 3 mps 756 mmHg 91%
    05:00 +16°C° 0 mm 3 mps 756 mmHg 90%
    06:00 +16°C° 0 mm 3 mps 756 mmHg 90%
    07:00 +16°C° 0 mm 3 mps 756 mmHg 89%
    08:00 +17°C° 0 mm 3 mps 756 mmHg 88%
    09:00 +17°C° 0 mm 3 mps 757 mmHg 88%
    10:00 +17°C° 0 mm 3 mps 757 mmHg 86%
    11:00 +17°C° 0 mm 3 mps 757 mmHg 83%
    12:00 +18°C° 0 mm 3 mps 757 mmHg 81%
    13:00 +18°C° 0 mm 3 mps 757 mmHg 78%
    14:00 +18°C° 0 mm 3 mps 757 mmHg 76%
    15:00 +18°C° 0 mm 3 mps 757 mmHg 73%
    16:00 +17°C° 0 mm 3 mps 757 mmHg 74%
    17:00 +17°C° 0 mm 3 mps 758 mmHg 75%
    18:00 +16°C° 0 mm 2 mps 758 mmHg 77%
    19:00 +15°C° 0 mm 2 mps 758 mmHg 77%
    20:00 +14°C° 0 mm 2 mps 759 mmHg 77%
    21:00 +13°C° 0 mm 2 mps 759 mmHg 78%
    22:00 +12°C° 0 mm 2 mps 759 mmHg 82%
    23:00 +10°C° 0 mm 2 mps 760 mmHg 86%

    Day after tomorrow, 17 September, Tuesday

    Time Temperature Precipitation Wind Pressure Humidity
    00:00 +11°C° 0 mm 1 mps 760 mmHg 91%
    01:00 +10°C° 0 mm 1 mps 760 mmHg 91%
    02:00 +10°C° 0 mm 1 mps 760 mmHg 91%
    03:00 +10°C° 0 mm 1 mps 760 mmHg 92%
    04:00 +9°C° 0 mm 1 mps 760 mmHg 92%
    05:00 +9°C° 0 mm 1 mps 760 mmHg 91%
    06:00 +9°C° 0 mm 1 mps 760 mmHg 91%
    07:00 +9°C° 0 mm 2 mps 760 mmHg 83%
    08:00 +12°C° 0 mm 2 mps 761 mmHg 75%
    09:00 +13°C° 0 mm 2 mps 761 mmHg 67%
    10:00 +15°C° 0 mm 2 mps 761 mmHg 62%
    11:00 +16°C° 0 mm 2 mps 761 mmHg 58%
    12:00 +17°C° 0 mm 2 mps 761 mmHg 53%
    13:00 +17°C° 0 mm 2 mps 760 mmHg 51%
    14:00 +17°C° 0 mm 2 mps 760 mmHg 49%
    15:00 +18°C° 0 mm 3 mps 760 mmHg 47%
    16:00 +17°C° 0 mm 2 mps 760 mmHg 53%
    17:00 +15°C° 0 mm 2 mps 760 mmHg 59%
    18:00 +14°C° 0 mm 2 mps 760 mmHg 64%
    19:00 +13°C° 0 mm 2 mps 760 mmHg 69%
    20:00 +12°C° 0 mm 2 mps 761 mmHg 75%
    21:00 +10°C° 0 mm 2 mps 761 mmHg 80%
    22:00 +9°C° 0 mm 2 mps 761 mmHg 81%
    23:00 +9°C° 0 mm 2 mps 761 mmHg 82%

    18 September, Wednesday

    Time Temperature Precipitation Wind Pressure Humidity
    00:00 +10°C° 0 mm 1 mps 761 mmHg 83%
    01:00 +9°C° 0 mm 1 mps 761 mmHg 83%
    02:00 +9°C° 0 mm 1 mps 762 mmHg 84%
    03:00 +9°C° 0 mm 1 mps 762 mmHg 84%
    04:00 +9°C° 0 mm 1 mps 762 mmHg 84%
    05:00 +9°C° 0 mm 1 mps 762 mmHg 84%
    06:00 +8°C° 0 mm 0 mps 762 mmHg 84%
    07:00 +10°C° 0 mm 1 mps 762 mmHg 80%
    08:00 +11°C° 0 mm 1 mps 762 mmHg 75%
    09:00 +13°C° 0 mm 1 mps 762 mmHg 70%
    10:00 +14°C° 0 mm 1 mps 762 mmHg 67%
    11:00 +15°C° 0 mm 1 mps 762 mmHg 64%
    12:00 +16°C° 0 mm 1 mps 762 mmHg 61%
    13:00 +16°C° 0 mm 2 mps 762 mmHg 63%
    14:00 +16°C° 0 mm 2 mps 762 mmHg 65%
    15:00 +16°C° 0 mm 2 mps 762 mmHg 66%
    16:00 +16°C° 0 mm 2 mps 762 mmHg 70%
    17:00 +15°C° 0 mm 2 mps 762 mmHg 74%
    18:00 +14°C° 0 mm 2 mps 762 mmHg 78%
    19:00 +14°C° 0 mm 2 mps 763 mmHg 81%
    20:00 +13°C° 0 mm 2 mps 763 mmHg 84%
    21:00 +12°C° 0 mm 2 mps 764 mmHg 86%
    22:00 +12°C° 0 mm 2 mps 764 mmHg 86%
    23:00 +10°C° 0 mm 2 mps 764 mmHg 87%

    19 September, Thursday

    Time Temperature Precipitation Wind Pressure Humidity
    00:00 +10°C° 0 mm 2 mps 764 mmHg 87%
    01:00 +10°C° 0 mm 2 mps 764 mmHg 89%
    02:00 +9°C° 0 mm 2 mps 764 mmHg 91%
    03:00 +9°C° 0 mm 2 mps 764 mmHg 93%
    04:00 +9°C° 0 mm 2 mps 764 mmHg 94%
    05:00 +8°C° 0 mm 2 mps 764 mmHg 95%
    06:00 +8°C° 0 mm 2 mps 764 mmHg 95%
    07:00 +10°C° 0 mm 2 mps 765 mmHg 88%
    08:00 +11°C° 0 mm 3 mps 765 mmHg 80%
    09:00 +13°C° 0 mm 3 mps 766 mmHg 73%
    10:00 +14°C° 0 mm 3 mps 766 mmHg 68%
    11:00 +14°C° 0 mm 3 mps 766 mmHg 63%
    12:00 +16°C° 0 mm 3 mps 766 mmHg 59%
    13:00 +17°C° 0 mm 3 mps 766 mmHg 55%
    14:00 +17°C° 0 mm 3 mps 765 mmHg 52%
    15:00 +17°C° 0 mm 3 mps 765 mmHg 49%
    16:00 +16°C° 0 mm 3 mps 765 mmHg 54%
    17:00 +13°C° 0 mm 3 mps 765 mmHg 58%
    18:00 +12°C° 0 mm 3 mps 765 mmHg 63%
    19:00 +11°C° 0 mm 3 mps 765 mmHg 67%
    20:00 +10°C° 0 mm 3 mps 766 mmHg 72%
    21:00 +9°C° 0 mm 3 mps 766 mmHg 76%
    22:00 +9°C° 0 mm 3 mps 766 mmHg 77%
    23:00 +8°C° 0 mm 2 mps 766 mmHg 79%

    20 September, Friday

    Time Temperature Precipitation Wind Pressure Humidity
    00:00 +8°C° 0 mm 2 mps 766 mmHg 81%
    01:00 +8°C° 0 mm 2 mps 766 mmHg 82%
    02:00 +7°C° 0 mm 2 mps 765 mmHg 82%
    03:00 +7°C° 0 mm 2 mps 765 mmHg 83%
    04:00 +7°C° 0 mm 2 mps 765 mmHg 85%
    05:00 +7°C° 0 mm 2 mps 765 mmHg 86%
    06:00 +7°C° 0 mm 2 mps 765 mmHg 87%
    07:00 +8°C° 0 mm 3 mps 765 mmHg 81%
    08:00 +10°C° 0 mm 3 mps 765 mmHg 75%
    09:00 +12°C° 0 mm 4 mps 765 mmHg 69%
    10:00 +13°C° 0 mm 4 mps 764 mmHg 65%
    11:00 +14°C° 0 mm 4 mps 764 mmHg 60%
    12:00 +17°C° 0 mm 4 mps 764 mmHg 55%
    13:00 +17°C° 0 mm 4 mps 763 mmHg 55%
    14:00 +16°C° 0 mm 5 mps 762 mmHg 54%
    15:00 +17°C° 0 mm 5 mps 762 mmHg 54%
    16:00 +15°C° 0 mm 4 mps 761 mmHg 59%
    17:00 +14°C° 0 mm 4 mps 761 mmHg 65%
    18:00 +12°C° 0 mm 4 mps 760 mmHg 70%
    19:00 +12°C° 0 mm 4 mps 760 mmHg 73%
    20:00 +11°C° 0 mm 4 mps 760 mmHg 76%
    21:00 +10°C° 0 mm 4 mps 760 mmHg 79%
    22:00 +10°C° 0 mm 4 mps 760 mmHg 81%
    23:00 +8°C° 0 mm 4 mps 760 mmHg 83%
    Show more